When you browse on this site, cookies collect data to enhance your experience and personalize the content and advertising you see.
Visit our Privacy Policy to learn more. By continuing to use the site, you agree to this use of cookies and data.
  • In Schweiz
  • Länderverzeichnis
  • Für 7 Tage
  • Wassertemperatur
  • Satellitenkarten
  • Wetterkarte
  • Widgets
  • user-avatar
    Anmelden

    Stündliche Wetter Serhiivka

    Heute, 18 November, Sonntag

    Zeit Temperatur Niederschläge Wind Luftdruck Luftfeuchtigkeit
    00:00 -4°C° 0 mm 3 m/S 758 mmHg 73%
    01:00 -4°C° 0 mm 3 m/S 757 mmHg 73%
    02:00 -5°C° 0 mm 3 m/S 757 mmHg 73%
    03:00 -4°C° 0 mm 2 m/S 757 mmHg 72%
    04:00 -4°C° 0 mm 2 m/S 757 mmHg 71%
    05:00 -4°C° 0 mm 2 m/S 757 mmHg 71%
    06:00 -3°C° 0 mm 2 m/S 757 mmHg 69%
    07:00 -3°C° 0 mm 2 m/S 756 mmHg 68%
    08:00 -2°C° 0 mm 2 m/S 756 mmHg 63%
    09:00 -2°C° 0 mm 2 m/S 756 mmHg 61%
    10:00 -1°C° 0 mm 2 m/S 756 mmHg 58%
    11:00 +2°C° 0 mm 1 m/S 756 mmHg 55%
    12:00 +2°C° 0 mm 1 m/S 755 mmHg 55%
    13:00 +3°C° 0 mm 1 m/S 755 mmHg 56%
    14:00 +2°C° 0 mm 0 m/S 755 mmHg 56%
    15:00 +1°C° 0 mm 0 m/S 755 mmHg 59%
    16:00 +1°C° 0 mm 1 m/S 755 mmHg 63%
    17:00 +1°C° 0 mm 1 m/S 755 mmHg 67%
    18:00 +1°C° 0 mm 1 m/S 755 mmHg 69%
    19:00 0°C° 0 mm 1 m/S 755 mmHg 71%
    20:00 -2°C° 0 mm 2 m/S 755 mmHg 73%
    21:00 -2°C° 0 mm 2 m/S 755 mmHg 75%
    22:00 -2°C° 0 mm 2 m/S 755 mmHg 78%
    23:00 -2°C° 0 mm 2 m/S 755 mmHg 80%

    Morgen, 19 November, Montag

    Zeit Temperatur Niederschläge Wind Luftdruck Luftfeuchtigkeit
    00:00 -3°C° 0 mm 2 m/S 755 mmHg 83%
    01:00 -4°C° 0 mm 3 m/S 755 mmHg 85%
    02:00 -4°C° 0 mm 3 m/S 754 mmHg 87%
    03:00 -4°C° 0 mm 3 m/S 754 mmHg 89%
    04:00 -4°C° 0 mm 3 m/S 754 mmHg 90%
    05:00 -4°C° 0 mm 3 m/S 754 mmHg 92%
    06:00 -3°C° 0 mm 4 m/S 754 mmHg 92%
    07:00 -3°C° 0 mm 4 m/S 754 mmHg 91%
    08:00 -2°C° 0 mm 4 m/S 754 mmHg 91%
    09:00 -2°C° 0 mm 5 m/S 754 mmHg 89%
    10:00 -1°C° 0 mm 5 m/S 754 mmHg 87%
    11:00 0°C° 0 mm 5 m/S 754 mmHg 85%
    12:00 -1°C° 0 mm 6 m/S 754 mmHg 84%
    13:00 -1°C° 0 mm 6 m/S 753 mmHg 84%
    14:00 -1°C° 0 mm 6 m/S 753 mmHg 84%
    15:00 -1°C° 0.1 mm 6 m/S 753 mmHg 86%
    16:00 -1°C° 0.1 mm 7 m/S 753 mmHg 88%
    17:00 -1°C° 0.1 mm 7 m/S 752 mmHg 90%
    18:00 -1°C° 0.3 mm 7 m/S 752 mmHg 91%
    19:00 -1°C° 0.3 mm 7 m/S 752 mmHg 91%
    20:00 -1°C° 0.3 mm 7 m/S 751 mmHg 92%
    21:00 -1°C° 1.1 mm 7 m/S 751 mmHg 91%
    22:00 -1°C° 1.1 mm 7 m/S 751 mmHg 91%
    23:00 0°C° 1.1 mm 7 m/S 751 mmHg 91%

    übermorgen, 20 November, Dienstag

    Zeit Temperatur Niederschläge Wind Luftdruck Luftfeuchtigkeit
    00:00 0°C° 0.6 mm 8 m/S 750 mmHg 91%
    01:00 0°C° 0.6 mm 8 m/S 750 mmHg 91%
    02:00 0°C° 0.6 mm 8 m/S 749 mmHg 91%
    03:00 0°C° 0.4 mm 8 m/S 749 mmHg 92%
    04:00 0°C° 0.4 mm 8 m/S 749 mmHg 92%
    05:00 0°C° 0.4 mm 7 m/S 748 mmHg 92%
    06:00 +2°C° 0.2 mm 7 m/S 748 mmHg 93%
    07:00 +2°C° 0.2 mm 7 m/S 748 mmHg 93%
    08:00 +2°C° 0.2 mm 6 m/S 748 mmHg 94%
    09:00 +2°C° 0.2 mm 6 m/S 748 mmHg 93%
    10:00 +2°C° 0.2 mm 5 m/S 748 mmHg 93%
    11:00 +2°C° 0.2 mm 5 m/S 748 mmHg 92%
    12:00 +2°C° 0.4 mm 5 m/S 748 mmHg 92%
    13:00 +2°C° 0.4 mm 5 m/S 748 mmHg 92%
    14:00 +2°C° 0.4 mm 5 m/S 748 mmHg 92%
    15:00 +1°C° 0.1 mm 5 m/S 748 mmHg 91%
    16:00 +1°C° 0.1 mm 5 m/S 749 mmHg 90%
    17:00 -1°C° 0.1 mm 6 m/S 749 mmHg 89%
    18:00 -1°C° 0 mm 6 m/S 750 mmHg 89%
    19:00 -1°C° 0 mm 6 m/S 750 mmHg 88%
    20:00 -1°C° 0 mm 6 m/S 751 mmHg 88%
    21:00 0°C° 0 mm 5 m/S 751 mmHg 88%
    22:00 -1°C° 0 mm 4 m/S 751 mmHg 89%
    23:00 0°C° 0 mm 3 m/S 752 mmHg 90%

    21 November, Mittwoch

    Zeit Temperatur Niederschläge Wind Luftdruck Luftfeuchtigkeit
    00:00 0°C° 0 mm 3 m/S 752 mmHg 90%
    01:00 -1°C° 0 mm 4 m/S 752 mmHg 90%
    02:00 -1°C° 0 mm 4 m/S 753 mmHg 89%
    03:00 -1°C° 0 mm 4 m/S 753 mmHg 89%
    04:00 -1°C° 0 mm 4 m/S 753 mmHg 89%
    05:00 -2°C° 0 mm 4 m/S 753 mmHg 89%
    06:00 -2°C° 0 mm 4 m/S 753 mmHg 88%
    07:00 -2°C° 0 mm 5 m/S 753 mmHg 88%
    08:00 -2°C° 0 mm 5 m/S 753 mmHg 87%
    09:00 -1°C° 0 mm 5 m/S 753 mmHg 85%
    10:00 -1°C° 0 mm 4 m/S 753 mmHg 83%
    11:00 -1°C° 0 mm 4 m/S 753 mmHg 81%
    12:00 0°C° 0 mm 4 m/S 753 mmHg 79%
    13:00 0°C° 0 mm 4 m/S 753 mmHg 77%
    14:00 +1°C° 0 mm 4 m/S 753 mmHg 75%
    15:00 0°C° 0 mm 4 m/S 753 mmHg 76%
    16:00 0°C° 0 mm 5 m/S 753 mmHg 77%
    17:00 -1°C° 0 mm 5 m/S 753 mmHg 78%
    18:00 -1°C° 0 mm 5 m/S 753 mmHg 78%
    19:00 -1°C° 0 mm 5 m/S 753 mmHg 79%
    20:00 -2°C° 0 mm 5 m/S 753 mmHg 79%
    21:00 -2°C° 0 mm 5 m/S 753 mmHg 80%
    22:00 -2°C° 0 mm 5 m/S 753 mmHg 81%
    23:00 -4°C° 0 mm 5 m/S 753 mmHg 82%

    22 November, Donnerstag

    Zeit Temperatur Niederschläge Wind Luftdruck Luftfeuchtigkeit
    00:00 -4°C° 0 mm 5 m/S 753 mmHg 82%
    01:00 -4°C° 0 mm 5 m/S 753 mmHg 81%
    02:00 -4°C° 0 mm 5 m/S 753 mmHg 81%
    03:00 -4°C° 0 mm 5 m/S 753 mmHg 80%
    04:00 -4°C° 0 mm 5 m/S 753 mmHg 79%
    05:00 -4°C° 0 mm 5 m/S 753 mmHg 78%
    06:00 -4°C° 0 mm 5 m/S 753 mmHg 76%
    07:00 -4°C° 0 mm 5 m/S 753 mmHg 75%
    08:00 -4°C° 0 mm 5 m/S 753 mmHg 74%
    09:00 -2°C° 0 mm 5 m/S 753 mmHg 70%
    10:00 -2°C° 0 mm 5 m/S 753 mmHg 66%
    11:00 -1°C° 0 mm 5 m/S 753 mmHg 61%
    12:00 0°C° 0 mm 5 m/S 753 mmHg 61%
    13:00 0°C° 0 mm 5 m/S 753 mmHg 60%
    14:00 0°C° 0 mm 5 m/S 753 mmHg 60%
    15:00 -1°C° 0 mm 4 m/S 753 mmHg 66%
    16:00 -2°C° 0 mm 4 m/S 753 mmHg 72%
    17:00 -3°C° 0 mm 4 m/S 753 mmHg 77%
    18:00 -3°C° 0 mm 4 m/S 754 mmHg 79%
    19:00 -4°C° 0 mm 4 m/S 754 mmHg 81%
    20:00 -4°C° 0 mm 4 m/S 754 mmHg 83%
    21:00 -4°C° 0 mm 4 m/S 754 mmHg 83%
    22:00 -4°C° 0 mm 4 m/S 755 mmHg 84%
    23:00 -4°C° 0 mm 4 m/S 755 mmHg 84%

    23 November, Freitag

    Zeit Temperatur Niederschläge Wind Luftdruck Luftfeuchtigkeit
    00:00 -4°C° 0 mm 4 m/S 755 mmHg 82%
    01:00 -4°C° 0 mm 4 m/S 755 mmHg 81%
    02:00 -5°C° 0 mm 4 m/S 755 mmHg 80%
    03:00 -5°C° 0 mm 4 m/S 755 mmHg 79%
    04:00 -5°C° 0 mm 4 m/S 756 mmHg 79%
    05:00 -5°C° 0 mm 4 m/S 756 mmHg 78%
    06:00 -5°C° 0 mm 4 m/S 756 mmHg 77%
    07:00 -5°C° 0 mm 4 m/S 757 mmHg 77%
    08:00 -4°C° 0 mm 4 m/S 757 mmHg 76%
    09:00 -3°C° 0 mm 4 m/S 758 mmHg 72%
    10:00 -2°C° 0 mm 4 m/S 758 mmHg 68%
    11:00 -1°C° 0 mm 4 m/S 758 mmHg 64%
    12:00 -1°C° 0 mm 4 m/S 758 mmHg 64%
    13:00 -1°C° 0 mm 4 m/S 758 mmHg 64%
    14:00 -1°C° 0 mm 4 m/S 758 mmHg 63%
    15:00 -2°C° 0 mm 4 m/S 759 mmHg 69%
    16:00 -2°C° 0 mm 4 m/S 759 mmHg 74%
    17:00 -3°C° 0 mm 4 m/S 759 mmHg 80%
    18:00 -4°C° 0 mm 4 m/S 759 mmHg 81%
    19:00 -4°C° 0 mm 4 m/S 759 mmHg 82%
    20:00 -4°C° 0 mm 4 m/S 760 mmHg 84%
    21:00 -4°C° 0 mm 4 m/S 760 mmHg 84%
    22:00 -4°C° 0 mm 4 m/S 759 mmHg 84%
    23:00 -4°C° 0 mm 4 m/S 759 mmHg 84%
    Mehr zeigen